| time (UTC) | temp F | wind direction | speed knots | gust knots | rain 1hr in | rain 24hr in | rain mn in | humidity % | barometer mb |
| 20260906143152 | 75 | 131 | 4.3 | 16.5 | 0.04 | 0.22 | 0.05 | 90 | 1009.7 |
| 20260906142651 | 76 | 135 | 3.5 | 16.5 | 0.04 | 0.22 | 0.05 | 90 | 1009.4 |
| 20260906142152 | 76 | 84 | 6.1 | 13.9 | 0.04 | 0.22 | 0.05 | 90 | 1009.6 |
| 20260906141657 | 76 | 137 | 3.5 | 13.9 | 0.04 | 0.22 | 0.05 | 90 | 1009.5 |
| 20260906141651 | 76 | 130 | 6.1 | 12.2 | 0.04 | 0.22 | 0.05 | 90 | 1009.4 |
| 20260906141442 | 76 | 137 | 3.5 | 13.9 | 0.04 | 0.22 | 0.05 | 90 | 1009.5 |
| 20260906140653 | 76 | 67 | 10.4 | 13.9 | 0.03 | 0.21 | 0.04 | 90 | 1009.5 |
| 20260906140152 | 76 | 57 | 0.9 | 9.6 | 0.03 | 0.21 | 0.04 | 90 | 1009.5 |
| 20260906135652 | 76 | 155 | 3.5 | 12.2 | 0.03 | 0.21 | 0.04 | 89 | 1009.5 |
| 20260906135151 | 77 | 130 | 5.2 | 12.2 | 0.03 | 0.20 | 0.03 | 89 | 1009.5 |
| 20260906134651 | 77 | 107 | 8.7 | 12.2 | 0.01 | 0.18 | 0.01 | 89 | 1009.5 |
| 20260906134422 | 77 | 115 | 5.2 | 8.7 | 0.01 | 0.19 | 0.01 | 89 | 1009.7 |
| 20260906133925 | 77 | 130 | 5.2 | 8.7 | 0.01 | 0.19 | 0.01 | 89 | 1009.6 |
| 20260906133710 | 77 | 130 | 5.2 | 8.7 | 0.01 | 0.19 | 0.01 | 89 | 1009.6 |
| 20260906133423 | 77 | 142 | 4.3 | 7.8 | 0.01 | 0.19 | 0.01 | 89 | 1009.5 |
| 20260906132652 | 77 | 108 | 5.2 | 9.6 | 0.01 | 0.19 | 0.01 | 89 | 1009.6 |
| 20260906132159 | 76 | 120 | 6.1 | 11.3 | 0.01 | 0.19 | 0.01 | 89 | 1009.7 |
| 20260906132153 | 76 | 145 | 3.5 | 9.6 | 0.01 | 0.19 | 0.01 | 89 | 1009.7 |
| 20260906131942 | 76 | 120 | 6.1 | 11.3 | 0.01 | 0.19 | 0.01 | 89 | 1009.7 |
| 20260906131152 | 77 | 130 | 3.5 | 11.3 | 0.01 | 0.19 | 0.01 | 89 | 1009.7 |
| 20260906130932 | 77 | 105 | 5.2 | 16.5 | 0.01 | 0.19 | 0.01 | 88 | 1009.8 |
| 20260906130654 | 77 | 112 | 7.0 | 11.3 | 0.01 | 0.19 | 0.01 | 88 | 1009.6 |
| 20260906125923 | 78 | 145 | 5.2 | 17.4 | 0.01 | 0.19 | 0.01 | 87 | 1009.8 |
| 20260906125152 | 78 | 109 | 5.2 | 17.4 | 0.00 | 0.18 | 0.00 | 86 | 1009.8 |
| 20260906124652 | 78 | 58 | 3.5 | 17.4 | 0.00 | 0.18 | 0.00 | 85 | 1009.6 |
| 20260906124140 | 78 | 84 | 7.0 | 13.0 | 0.00 | 0.18 | 0.00 | 86 | 1009.8 |
| 20260906123640 | 78 | 75 | 5.2 | 14.8 | 0.00 | 0.18 | 0.00 | 86 | 1009.9 |
| 20260906123140 | 78 | 83 | 4.3 | 14.8 | 0.00 | 0.18 | 0.00 | 86 | 1010.1 |
| 20260906122640 | 78 | 121 | 5.2 | 13.0 | 0.00 | 0.18 | 0.00 | 86 | 1010.1 |
| 20260906122140 | 78 | 73 | 7.0 | 13.0 | 0.00 | 0.18 | 0.00 | 86 | 1009.9 |
| 20260906121640 | 78 | 83 | 7.0 | 14.8 | 0.00 | 0.18 | 0.00 | 86 | 1010.1 |
| 20260906121139 | 78 | 103 | 8.7 | 14.8 | 0.00 | 0.18 | 0.00 | 85 | 1010.1 |
| 20260906120627 | 78 | 112 | 7.8 | 13.0 | 0.00 | 0.18 | 0.00 | 86 | 1009.9 |
| 20260906120127 | 78 | 79 | 3.5 | 13.0 | 0.00 | 0.18 | 0.00 | 86 | 1010.1 |
| 20260906115629 | 78 | 71 | 8.7 | 13.0 | 0.00 | 0.18 | 0.00 | 85 | 1010.2 |
| 20260906115359 | 78 | 88 | 7.0 | 11.3 | 0.00 | 0.18 | 0.00 | 85 | 1010.0 |
| 20260906114628 | 78 | 124 | 5.2 | 16.5 | 0.00 | 0.18 | 0.00 | 85 | 1010.2 |
| 20260906114358 | 78 | 93 | 6.1 | 16.5 | 0.00 | 0.18 | 0.00 | 85 | 1010.1 |
| 20260906113859 | 78 | 67 | 7.8 | 13.9 | 0.00 | 0.18 | 0.00 | 85 | 1010.2 |
| 20260906113115 | 78 | 78 | 8.7 | 13.9 | 0.00 | 0.18 | 0.00 | 85 | 1010.2 |
| 20260906112617 | 78 | 72 | 5.2 | 13.0 | 0.00 | 0.18 | 0.00 | 85 | 1010.2 |
| 20260906112115 | 78 | 101 | 4.3 | 13.0 | 0.00 | 0.18 | 0.00 | 85 | 1010.7 |
| 20260906111616 | 78 | 87 | 7.8 | 13.0 | 0.00 | 0.18 | 0.00 | 85 | 1010.8 |
| 20260906111346 | 78 | 103 | 4.3 | 13.0 | 0.00 | 0.18 | 0.00 | 85 | 1010.6 |
| 20260906110615 | 78 | 81 | 5.2 | 13.0 | 0.00 | 0.18 | 0.00 | 85 | 1011.0 |
| 20260906110115 | 78 | 72 | 3.5 | 13.9 | 0.00 | 0.18 | 0.00 | 85 | 1011.0 |
| 20260906105603 | 78 | 89 | 6.1 | 13.9 | 0.00 | 0.18 | 0.00 | 85 | 1010.6 |
| 20260906105335 | 78 | 106 | 5.2 | 13.9 | 0.00 | 0.18 | 0.00 | 85 | 1011.0 |
| 20260906104556 | 78 | 64 | 6.1 | 12.2 | 0.00 | 0.18 | 0.00 | 85 | 1010.9 |
| 20260906104052 | 78 | 66 | 5.2 | 13.0 | 0.00 | 0.18 | 0.00 | 85 | 1010.9 |
| 20260906103614 | 78 | 107 | 7.0 | 13.0 | 0.00 | 0.18 | 0.00 | 85 | 1011.2 |
| 20260906103323 | 78 | 105 | 6.1 | 12.2 | 0.00 | 0.18 | 0.00 | 85 | 1011.3 |
| 20260906102601 | 78 | 85 | 5.2 | 11.3 | 0.00 | 0.18 | 0.00 | 85 | 1011.2 |
| 20260906102054 | 78 | 141 | 3.5 | 13.0 | 0.00 | 0.18 | 0.00 | 85 | 1011.3 |
| 20260906101553 | 78 | 123 | 3.5 | 13.0 | 0.00 | 0.18 | 0.00 | 85 | 1011.3 |
| 20260906101310 | 78 | 62 | 5.2 | 13.9 | 0.00 | 0.18 | 0.00 | 85 | 1011.4 |
| 20260906100541 | 78 | 92 | 8.7 | 13.9 | 0.00 | 0.18 | 0.00 | 84 | 1011.3 |
| 20260906100040 | 78 | 80 | 7.0 | 13.0 | 0.00 | 0.18 | 0.00 | 85 | 1011.3 |
| 20260906095539 | 78 | 113 | 3.5 | 13.0 | 0.00 | 0.18 | 0.18 | 85 | 1011.2 |
| 20260906095039 | 78 | 127 | 7.8 | 13.0 | 0.00 | 0.18 | 0.18 | 84 | 1011.5 |
| 20260906094540 | 78 | 92 | 5.2 | 12.2 | 0.00 | 0.18 | 0.18 | 84 | 1011.5 |
| 20260906094039 | 78 | 64 | 6.1 | 12.2 | 0.00 | 0.18 | 0.18 | 84 | 1011.6 |
| 20260906093540 | 78 | 60 | 8.7 | 12.2 | 0.00 | 0.18 | 0.18 | 84 | 1011.8 |
| 20260906093039 | 78 | 52 | 6.1 | 12.2 | 0.00 | 0.18 | 0.18 | 84 | 1011.7 |
| 20260906092810 | 78 | 96 | 7.0 | 11.3 | 0.00 | 0.18 | 0.18 | 84 | 1011.6 |
| 20260906092040 | 78 | 73 | 4.3 | 12.2 | 0.00 | 0.18 | 0.18 | 84 | 1011.2 |
| 20260906091540 | 78 | 89 | 4.3 | 12.2 | 0.00 | 0.18 | 0.18 | 84 | 1011.5 |
| 20260906091311 | 78 | 83 | 3.5 | 17.4 | 0.00 | 0.18 | 0.18 | 84 | 1011.8 |
| 20260906090528 | 78 | 83 | 5.2 | 17.4 | 0.00 | 0.18 | 0.18 | 84 | 1011.9 |
| 20260906090027 | 78 | 94 | 5.2 | 12.2 | 0.00 | 0.18 | 0.18 | 84 | 1012.0 |
| 20260906085758 | 78 | 79 | 9.6 | 12.2 | 0.00 | 0.18 | 0.18 | 85 | 1011.9 |
| 20260906085028 | 78 | 129 | 3.5 | 11.3 | 0.00 | 0.18 | 0.18 | 85 | 1011.9 |
| 20260906084529 | 78 | 96 | 7.8 | 11.3 | 0.00 | 0.18 | 0.18 | 84 | 1011.9 |
| 20260906084028 | 78 | 70 | 4.3 | 11.3 | 0.00 | 0.18 | 0.18 | 84 | 1012.2 |
| 20260906083759 | 78 | 74 | 3.5 | 12.2 | 0.00 | 0.18 | 0.18 | 85 | 1012.0 |
| 20260906083027 | 78 | 101 | 5.2 | 12.2 | 0.00 | 0.18 | 0.18 | 85 | 1012.1 |
| 20260906082527 | 78 | 114 | 7.0 | 12.2 | 0.00 | 0.18 | 0.18 | 86 | 1012.1 |
| 20260906082028 | 78 | 57 | 7.0 | 12.2 | 0.00 | 0.18 | 0.18 | 86 | 1012.1 |
| 20260906081528 | 78 | 76 | 7.0 | 13.0 | 0.00 | 0.18 | 0.18 | 85 | 1012.3 |
| 20260906081028 | 78 | 89 | 5.2 | 13.0 | 0.00 | 0.18 | 0.18 | 85 | 1012.1 |
| 20260906080528 | 78 | 46 | 5.2 | 12.2 | 0.00 | 0.18 | 0.18 | 85 | 1012.2 |
| 20260906080258 | 78 | 87 | 3.5 | 12.2 | 0.00 | 0.18 | 0.18 | 85 | 1012.2 |
| 20260906075527 | 78 | 102 | 9.6 | 13.0 | 0.00 | 0.18 | 0.18 | 85 | 1012.4 |
| 20260906075028 | 78 | 54 | 6.1 | 13.9 | 0.00 | 0.18 | 0.18 | 85 | 1012.2 |
| 20260906074529 | 78 | 80 | 5.2 | 16.5 | 0.00 | 0.18 | 0.18 | 85 | 1012.3 |
| 20260906074027 | 78 | 96 | 3.5 | 16.5 | 0.00 | 0.18 | 0.18 | 85 | 1012.5 |
| 20260906073527 | 78 | 99 | 5.2 | 13.0 | 0.00 | 0.18 | 0.18 | 85 | 1012.5 |
| 20260906073029 | 78 | 104 | 6.1 | 13.0 | 0.00 | 0.18 | 0.18 | 85 | 1012.2 |
| 20260906072528 | 78 | 100 | 4.3 | 13.0 | 0.00 | 0.18 | 0.18 | 85 | 1012.0 |
| 20260906072029 | 78 | 126 | 4.3 | 12.2 | 0.00 | 0.18 | 0.18 | 85 | 1012.1 |
| 20260906071800 | 78 | 62 | 2.6 | 9.6 | 0.00 | 0.18 | 0.18 | 85 | 1012.2 |
| 20260906071258 | 78 | 102 | 3.5 | 9.6 | 0.00 | 0.18 | 0.18 | 84 | 1012.1 |
| 20260906070528 | 78 | 122 | 5.2 | 11.3 | 0.00 | 0.18 | 0.18 | 84 | 1012.2 |
| 20260906070028 | 78 | 89 | 5.2 | 13.9 | 0.00 | 0.18 | 0.18 | 84 | 1012.0 |
| 20260906065527 | 78 | 106 | 2.6 | 13.9 | 0.00 | 0.18 | 0.18 | 85 | 1011.9 |
| 20260906065027 | 78 | 98 | 7.0 | 13.9 | 0.00 | 0.18 | 0.18 | 85 | 1011.9 |
| 20260906064528 | 78 | 88 | 5.2 | 13.9 | 0.00 | 0.18 | 0.18 | 85 | 1011.8 |
| 20260906064028 | 78 | 103 | 2.6 | 11.3 | 0.00 | 0.18 | 0.18 | 85 | 1011.9 |
| 20260906063759 | 77 | 106 | 5.2 | 13.0 | 0.00 | 0.18 | 0.18 | 85 | 1011.8 |
| 20260906063028 | 77 | 73 | 6.1 | 13.0 | 0.00 | 0.18 | 0.18 | 85 | 1011.8 |
| 20260906062527 | 77 | 67 | 5.2 | 14.8 | 0.00 | 0.18 | 0.18 | 85 | 1011.8 |
| 20260906062028 | 77 | 103 | 9.6 | 14.8 | 0.00 | 0.18 | 0.18 | 85 | 1011.6 |
| 20260906061529 | 77 | 70 | 5.2 | 13.0 | 0.00 | 0.18 | 0.18 | 86 | 1011.4 |
| 20260906061049 | 77 | 101 | 7.0 | 13.0 | 0.00 | 0.18 | 0.18 | 85 | 1011.3 |
| 20260906060527 | 77 | 49 | 3.5 | 14.8 | 0.00 | 0.18 | 0.18 | 84 | 1011.3 |
| 20260906060027 | 77 | 54 | 6.1 | 14.8 | 0.00 | 0.18 | 0.18 | 83 | 1011.3 |
| 20260906055533 | 77 | 105 | 7.0 | 12.2 | 0.00 | 0.18 | 0.18 | 83 | 1011.1 |
| 20260906055527 | 77 | 93 | 7.8 | 12.2 | 0.00 | 0.18 | 0.18 | 83 | 1011.6 |
| 20260906054528 | 77 | 135 | 6.1 | 12.2 | 0.00 | 0.18 | 0.18 | 83 | 1011.3 |
| 20260906054029 | 77 | 115 | 7.8 | 12.2 | 0.00 | 0.18 | 0.18 | 83 | 1011.4 |
| 20260906053527 | 77 | 128 | 6.1 | 13.0 | 0.00 | 0.18 | 0.18 | 83 | 1011.0 |
| 20260906053028 | 77 | 88 | 6.1 | 13.0 | 0.00 | 0.18 | 0.18 | 82 | 1011.2 |
| 20260906052528 | 77 | 94 | 2.6 | 13.0 | 0.00 | 0.18 | 0.18 | 82 | 1010.7 |
| 20260906052027 | 77 | 112 | 5.2 | 9.6 | 0.00 | 0.18 | 0.18 | 81 | 1011.0 |
| 20260906051527 | 77 | 125 | 2.6 | 8.7 | 0.00 | 0.18 | 0.18 | 81 | 1010.9 |
| 20260906051027 | 77 | 128 | 3.5 | 13.0 | 0.00 | 0.18 | 0.18 | 81 | 1010.8 |
| 20260906050527 | 77 | 101 | 7.0 | 13.0 | 0.00 | 0.18 | 0.18 | 81 | 1010.8 |
| 20260906050029 | 77 | 109 | 7.8 | 14.8 | 0.00 | 0.18 | 0.18 | 83 | 1011.0 |
| 20260906045529 | 77 | 102 | 8.7 | 14.8 | 0.00 | 0.18 | 0.18 | 84 | 1011.1 |
| 20260906045027 | 77 | 142 | 4.3 | 13.9 | 0.00 | 0.18 | 0.18 | 84 | 1011.1 |
| 20260906044527 | 77 | 130 | 5.2 | 13.9 | 0.00 | 0.18 | 0.18 | 84 | 1011.0 |
| 20260906044028 | 77 | 125 | 7.8 | 12.2 | 0.00 | 0.18 | 0.18 | 84 | 1011.0 |
| 20260906043527 | 77 | 106 | 9.6 | 13.9 | 0.00 | 0.18 | 0.18 | 83 | 1010.7 |
| 20260906043027 | 77 | 137 | 3.5 | 13.9 | 0.00 | 0.18 | 0.18 | 83 | 1010.6 |
| 20260906042529 | 77 | 91 | 7.8 | 11.3 | 0.00 | 0.18 | 0.18 | 84 | 1010.6 |
| 20260906042258 | 77 | 88 | 4.3 | 11.3 | 0.00 | 0.18 | 0.18 | 84 | 1010.9 |
| 20260906041528 | 77 | 147 | 4.3 | 12.2 | 0.00 | 0.18 | 0.18 | 84 | 1010.4 |
| 20260906041259 | 77 | 129 | 3.5 | 12.2 | 0.00 | 0.18 | 0.18 | 84 | 1010.6 |
| 20260906040528 | 77 | 119 | 5.2 | 13.0 | 0.00 | 0.18 | 0.18 | 85 | 1010.5 |
| 20260906040027 | 77 | 125 | 4.3 | 13.9 | 0.00 | 0.18 | 0.18 | 85 | 1010.5 |
| 20260906035527 | 77 | 92 | 3.5 | 13.9 | 0.00 | 0.18 | 0.18 | 85 | 1010.6 |
| 20260906035028 | 77 | 84 | 5.2 | 14.8 | 0.00 | 0.18 | 0.18 | 86 | 1010.6 |
| 20260906034528 | 77 | 120 | 3.5 | 14.8 | 0.00 | 0.18 | 0.18 | 85 | 1010.2 |
| 20260906034029 | 77 | 98 | 7.8 | 13.9 | 0.00 | 0.18 | 0.18 | 86 | 1010.3 |
| 20260906033529 | 76 | 101 | 5.2 | 17.4 | 0.01 | 0.18 | 0.18 | 86 | 1010.4 |
| 20260906033016 | 76 | 124 | 7.0 | 17.4 | 0.02 | 0.18 | 0.18 | 87 | 1010.3 |
| 20260906032516 | 76 | 98 | 3.5 | 17.4 | 0.02 | 0.18 | 0.18 | 88 | 1010.3 |
| 20260906032022 | 76 | 103 | 4.3 | 13.0 | 0.05 | 0.18 | 0.18 | 89 | 1010.2 |
| 20260906032015 | 76 | 86 | 5.2 | 17.4 | 0.05 | 0.18 | 0.18 | 89 | 1010.3 |
| 20260906031015 | 76 | 50 | 3.5 | 14.8 | 0.05 | 0.18 | 0.18 | 89 | 1010.3 |
| 20260906030515 | 76 | 101 | 5.2 | 18.2 | 0.05 | 0.18 | 0.18 | 89 | 1010.2 |
| 20260906030016 | 76 | 70 | 7.0 | 18.2 | 0.06 | 0.18 | 0.18 | 89 | 1010.2 |
| 20260906025748 | 76 | 99 | 6.1 | 13.9 | 0.06 | 0.18 | 0.18 | 90 | 1010.2 |
| 20260906025246 | 76 | 101 | 5.2 | 9.6 | 0.06 | 0.18 | 0.18 | 90 | 1010.1 |
| 20260906024748 | 75 | 76 | 4.3 | 12.2 | 0.05 | 0.17 | 0.18 | 90 | 1010.1 |
| 20260906024016 | 75 | 81 | 6.1 | 13.0 | 0.05 | 0.17 | 0.17 | 89 | 1010.3 |
| 20260906023515 | 75 | 92 | 8.7 | 13.9 | 0.04 | 0.17 | 0.17 | 89 | 1010.2 |
| 20260906023015 | 75 | 109 | 7.8 | 13.9 | 0.04 | 0.16 | 0.16 | 89 | 1010.4 |
| 20260906022503 | 75 | 169 | 6.1 | 9.6 | 0.03 | 0.15 | 0.15 | 88 | 1010.5 |
| 20260906022003 | 76 | 132 | 5.2 | 8.7 | 0.01 | 0.13 | 0.14 | 89 | 1010.6 |
| 20260906021503 | 76 | 134 | 3.5 | 9.6 | 0.03 | 0.13 | 0.13 | 88 | 1010.7 |
| 20260906021234 | 76 | 88 | 5.2 | 13.9 | 0.07 | 0.13 | 0.13 | 88 | 1010.8 |
| 20260906020504 | 76 | 121 | 4.3 | 16.5 | 0.09 | 0.12 | 0.12 | 88 | 1010.8 |
| 20260906020004 | 76 | 110 | 7.8 | 16.5 | 0.09 | 0.12 | 0.12 | 87 | 1010.7 |
| 20260906015742 | 77 | 103 | 9.6 | 17.4 | 0.09 | 0.12 | 0.12 | 88 | 1010.5 |
| 20260906015223 | 77 | 89 | 9.6 | 17.4 | 0.09 | 0.12 | 0.12 | 88 | 1010.4 |
| 20260906014439 | 77 | 28 | 6.1 | 13.0 | 0.09 | 0.12 | 0.12 | 89 | 1010.6 |
| 20260906013939 | 77 | 65 | 5.2 | 11.3 | 0.09 | 0.12 | 0.12 | 89 | 1010.4 |
| 20260906013444 | 76 | 86 | 0.0 | 11.3 | 0.09 | 0.12 | 0.12 | 89 | 1010.5 |
| 20260906012940 | 76 | 47 | 8.7 | 11.3 | 0.09 | 0.12 | 0.12 | 89 | 1010.5 |
| 20260906012441 | 76 | 130 | 2.6 | 11.3 | 0.09 | 0.12 | 0.12 | 88 | 1010.5 |
| 20260906011940 | 76 | 114 | 3.5 | 12.2 | 0.09 | 0.12 | 0.12 | 87 | 1010.7 |
| 20260906011440 | 77 | 99 | 9.6 | 12.2 | 0.07 | 0.10 | 0.10 | 86 | 1010.5 |
| 20260906010940 | 78 | 132 | 5.2 | 12.2 | 0.01 | 0.04 | 0.05 | 84 | 1010.7 |
| 20260906010440 | 78 | 123 | 3.5 | 12.2 | 0.00 | 0.03 | 0.03 | 83 | 1010.3 |
| 20260906005939 | 78 | 156 | 2.6 | 11.3 | 0.00 | 0.03 | 0.03 | 81 | 1010.7 |
| 20260906005439 | 79 | 102 | 3.5 | 11.3 | 0.00 | 0.03 | 0.03 | 80 | 1010.7 |
| 20260906004940 | 79 | 144 | 7.8 | 9.6 | 0.00 | 0.03 | 0.03 | 80 | 1010.6 |
| 20260906004441 | 79 | 194 | 7.0 | 12.2 | 0.00 | 0.03 | 0.03 | 80 | 1010.5 |
| 20260906004210 | 79 | 129 | 5.2 | 12.2 | 0.00 | 0.03 | 0.03 | 80 | 1010.6 |
| 20260906003441 | 79 | 114 | 4.3 | 13.0 | 0.00 | 0.03 | 0.03 | 80 | 1011.0 |
| 20260906002940 | 79 | 110 | 5.2 | 16.5 | 0.00 | 0.03 | 0.03 | 80 | 1010.8 |
| 20260906002441 | 79 | 112 | 7.8 | 16.5 | 0.00 | 0.03 | 0.03 | 78 | 1011.1 |
| 20260906001939 | 79 | 92 | 10.4 | 17.4 | 0.00 | 0.03 | 0.03 | 78 | 1010.6 |
| 20260906001710 | 80 | 89 | 7.0 | 17.4 | 0.00 | 0.03 | 0.03 | 77 | 1010.8 |
| 20260906001210 | 81 | 107 | 8.7 | 14.8 | 0.00 | 0.03 | 0.03 | 78 | 1010.8 |
| 20260906000441 | 81 | 71 | 8.7 | 14.8 | 0.00 | 0.03 | 0.03 | 79 | 1010.8 |
| 20260905235939 | 81 | 112 | 10.4 | 16.5 | 0.00 | 0.03 | 0.03 | 79 | 1011.0 |
| 20260905235439 | 81 | 52 | 6.1 | 17.4 | 0.00 | 0.03 | 0.03 | 79 | 1011.1 |
| 20260905234940 | 81 | 124 | 11.3 | 17.4 | 0.00 | 0.03 | 0.03 | 79 | 1011.0 |
| 20260905234440 | 81 | 80 | 7.8 | 17.4 | 0.00 | 0.03 | 0.03 | 79 | 1011.0 |
| 20260905233941 | 81 | 105 | 8.7 | 17.4 | 0.00 | 0.03 | 0.03 | 79 | 1011.1 |
| 20260905233445 | 81 | 54 | 8.7 | 14.8 | 0.00 | 0.03 | 0.03 | 79 | 1011.1 |
| 20260905233439 | 81 | 64 | 10.4 | 17.4 | 0.00 | 0.03 | 0.03 | 77 | 1011.2 |
| 20260905232439 | 81 | 85 | 7.8 | 18.2 | 0.00 | 0.03 | 0.03 | 79 | 1011.2 |
| 20260905231940 | 80 | 98 | 4.3 | 18.2 | 0.01 | 0.03 | 0.03 | 79 | 1011.3 |
| 20260905231441 | 80 | 89 | 7.8 | 20.0 | 0.01 | 0.03 | 0.03 | 80 | 1011.4 |
| 20260905230941 | 80 | 70 | 7.0 | 20.0 | 0.01 | 0.03 | 0.03 | 79 | 1011.4 |
| 20260905230439 | 80 | 106 | 9.6 | 16.5 | 0.01 | 0.03 | 0.03 | 79 | 1011.3 |
| 20260905230210 | 80 | 31 | 7.8 | 14.8 | 0.02 | 0.03 | 0.03 | 80 | 1011.5 |
| 20260905225439 | 80 | 93 | 7.0 | 14.8 | 0.02 | 0.03 | 0.03 | 81 | 1011.6 |
| 20260905225210 | 80 | 109 | 7.8 | 16.5 | 0.02 | 0.03 | 0.03 | 82 | 1011.6 |
| 20260905224440 | 80 | 47 | 6.1 | 16.5 | 0.02 | 0.03 | 0.03 | 82 | 1011.5 |
| 20260905223942 | 79 | 69 | 7.8 | 13.0 | 0.02 | 0.03 | 0.03 | 85 | 1011.4 |
| 20260905223447 | 78 | 54 | 5.2 | 13.0 | 0.02 | 0.03 | 0.03 | 86 | 1011.8 |
| 20260905223441 | 79 | 50 | 7.8 | 12.2 | 0.02 | 0.03 | 0.03 | 88 | 1011.6 |
| 20260905222710 | 78 | 75 | 5.2 | 16.5 | 0.02 | 0.03 | 0.03 | 87 | 1011.9 |
| 20260905221940 | 78 | 88 | 7.8 | 18.2 | 0.02 | 0.02 | 0.02 | 86 | 1011.8 |
| 20260905221439 | 78 | 57 | 4.3 | 20.0 | 0.02 | 0.02 | 0.02 | 86 | 1012.1 |
| 20260905220940 | 79 | 75 | 9.6 | 20.0 | 0.02 | 0.02 | 0.02 | 85 | 1012.0 |
| 20260905220440 | 80 | 69 | 3.5 | 13.9 | 0.01 | 0.02 | 0.02 | 83 | 1012.0 |
| 20260905220210 | 81 | 90 | 8.7 | 14.8 | 0.00 | 0.01 | 0.01 | 81 | 1012.2 |
| 20260905215440 | 81 | 45 | 7.8 | 16.5 | 0.00 | 0.01 | 0.01 | 80 | 1012.1 |
| 20260905214939 | 81 | 103 | 11.3 | 16.5 | 0.00 | 0.01 | 0.01 | 78 | 1012.1 |
| 20260905214711 | 81 | 63 | 7.0 | 18.2 | 0.00 | 0.01 | 0.01 | 78 | 1012.1 |
| 20260905213939 | 82 | 39 | 7.8 | 18.2 | 0.00 | 0.01 | 0.01 | 77 | 1012.3 |
| 20260905213441 | 82 | 80 | 7.8 | 14.8 | 0.00 | 0.01 | 0.01 | 79 | 1012.1 |
| 20260905212945 | 81 | 88 | 4.3 | 16.5 | 0.00 | 0.01 | 0.01 | 78 | 1012.2 |
| 20260905212439 | 82 | 30 | 9.6 | 16.5 | 0.00 | 0.01 | 0.01 | 77 | 1012.3 |
| 20260905212211 | 82 | 101 | 5.2 | 14.8 | 0.00 | 0.01 | 0.01 | 77 | 1012.5 |
| 20260905211439 | 83 | 85 | 5.2 | 14.8 | 0.00 | 0.01 | 0.01 | 75 | 1012.3 |
| 20260905210940 | 83 | 106 | 7.0 | 14.8 | 0.00 | 0.01 | 0.01 | 76 | 1012.6 |
| 20260905210440 | 82 | 66 | 7.8 | 18.2 | 0.00 | 0.01 | 0.01 | 75 | 1012.3 |
| 20260905205941 | 82 | 56 | 9.6 | 18.2 | 0.00 | 0.01 | 0.01 | 77 | 1012.4 |
| 20260905205439 | 82 | 117 | 9.6 | 14.8 | 0.00 | 0.01 | 0.01 | 76 | 1012.3 |
| 20260905204940 | 82 | 53 | 9.6 | 16.5 | 0.00 | 0.01 | 0.01 | 75 | 1012.4 |
| 20260905204439 | 82 | 95 | 5.2 | 16.5 | 0.00 | 0.01 | 0.01 | 78 | 1012.3 |
| 20260905204210 | 82 | 83 | 6.1 | 14.8 | 0.00 | 0.01 | 0.01 | 77 | 1012.5 |
| 20260905203711 | 82 | 65 | 7.8 | 14.8 | 0.00 | 0.01 | 0.01 | 76 | 1012.6 |
| 20260905203210 | 82 | 136 | 7.8 | 14.8 | 0.00 | 0.01 | 0.01 | 76 | 1012.4 |
| 20260905202440 | 82 | 88 | 5.2 | 16.5 | 0.00 | 0.01 | 0.01 | 77 | 1012.4 |
| 20260905201940 | 81 | 63 | 6.1 | 16.5 | 0.00 | 0.01 | 0.01 | 77 | 1012.5 |
| 20260905201440 | 81 | 64 | 7.8 | 13.9 | 0.00 | 0.01 | 0.01 | 77 | 1012.5 |
| 20260905200940 | 81 | 84 | 8.7 | 13.9 | 0.00 | 0.01 | 0.01 | 77 | 1012.1 |
| 20260905200428 | 81 | 57 | 12.2 | 14.8 | 0.00 | 0.01 | 0.01 | 79 | 1012.5 |
| 20260905195929 | 80 | 83 | 7.8 | 14.8 | 0.00 | 0.01 | 0.01 | 81 | 1012.4 |
| 20260905195428 | 79 | 60 | 8.7 | 21.7 | 0.00 | 0.01 | 0.01 | 80 | 1012.5 |
| 20260905194928 | 79 | 63 | 4.3 | 21.7 | 0.00 | 0.01 | 0.01 | 80 | 1012.4 |
| 20260905194429 | 80 | 84 | 12.2 | 20.9 | 0.00 | 0.01 | 0.01 | 80 | 1012.4 |
| 20260905193927 | 80 | 60 | 11.3 | 18.2 | 0.00 | 0.01 | 0.01 | 80 | 1012.4 |
| 20260905193428 | 81 | 23 | 7.8 | 17.4 | 0.00 | 0.01 | 0.01 | 79 | 1012.6 |
| 20260905193148 | 81 | 58 | 11.3 | 17.4 | 0.00 | 0.01 | 0.01 | 77 | 1012.2 |
| 20260905192416 | 81 | 111 | 9.6 | 17.4 | 0.00 | 0.01 | 0.01 | 77 | 1012.3 |
| 20260905191916 | 80 | 39 | 6.1 | 20.0 | 0.00 | 0.01 | 0.01 | 77 | 1012.5 |
| 20260905191647 | 80 | 77 | 10.4 | 20.0 | 0.00 | 0.01 | 0.01 | 77 | 1012.2 |
| 20260905190916 | 80 | 87 | 5.2 | 18.2 | 0.00 | 0.01 | 0.01 | 78 | 1012.3 |
| 20260905190415 | 80 | 39 | 9.6 | 18.2 | 0.00 | 0.01 | 0.01 | 78 | 1012.3 |
| 20260905185903 | 80 | 64 | 7.0 | 18.2 | 0.00 | 0.01 | 0.01 | 78 | 1012.1 |
| 20260905185404 | 80 | 87 | 11.3 | 18.2 | 0.00 | 0.01 | 0.01 | 78 | 1012.0 |
| 20260905185135 | 80 | 54 | 10.4 | 18.2 | 0.00 | 0.01 | 0.01 | 78 | 1012.0 |
| 20260905184404 | 80 | 87 | 8.7 | 17.4 | 0.00 | 0.01 | 0.01 | 78 | 1011.8 |
| 20260905183904 | 79 | 89 | 11.3 | 13.9 | 0.00 | 0.01 | 0.01 | 80 | 1011.9 |
| 20260905183404 | 79 | 102 | 6.1 | 11.3 | 0.00 | 0.01 | 0.01 | 79 | 1011.8 |
| 20260905182903 | 80 | 127 | 6.1 | 13.9 | 0.00 | 0.01 | 0.01 | 78 | 1012.0 |
| 20260905182352 | 80 | 53 | 5.2 | 16.5 | 0.00 | 0.01 | 0.01 | 78 | 1011.8 |
| 20260905181853 | 79 | 97 | 7.8 | 16.5 | 0.00 | 0.01 | 0.01 | 77 | 1011.8 |
| 20260905181339 | 79 | 26 | 5.2 | 14.8 | 0.00 | 0.01 | 0.01 | 78 | 1011.8 |
| 20260905181110 | 80 | 122 | 7.0 | 13.9 | 0.00 | 0.01 | 0.01 | 77 | 1011.8 |
| 20260905180340 | 79 | 105 | 7.0 | 13.9 | 0.00 | 0.01 | 0.01 | 78 | 1011.7 |
| 20260905180111 | 79 | 84 | 3.5 | 13.9 | 0.00 | 0.01 | 0.01 | 78 | 1011.7 |
| 20260905175340 | 79 | 92 | 3.5 | 13.0 | 0.00 | 0.01 | 0.01 | 80 | 1011.5 |
| 20260905175110 | 79 | 82 | 7.0 | 13.9 | 0.00 | 0.01 | 0.01 | 80 | 1011.8 |
| 20260905174340 | 78 | 107 | 6.1 | 13.9 | 0.00 | 0.01 | 0.01 | 82 | 1011.5 |
| 20260905174110 | 78 | 139 | 6.1 | 13.0 | 0.00 | 0.01 | 0.01 | 81 | 1011.6 |
| 20260905173340 | 78 | 69 | 9.6 | 17.4 | 0.00 | 0.01 | 0.01 | 81 | 1011.4 |
| 20260905172842 | 78 | 79 | 7.8 | 17.4 | 0.00 | 0.01 | 0.01 | 82 | 1011.4 |
| 20260905172340 | 78 | 58 | 9.6 | 13.9 | 0.00 | 0.01 | 0.01 | 81 | 1011.2 |
| 20260905171840 | 78 | 66 | 7.0 | 13.9 | 0.00 | 0.01 | 0.01 | 81 | 1011.5 |
| 20260905171345 | 78 | 90 | 7.0 | 13.9 | 0.00 | 0.01 | 0.01 | 80 | 1011.4 |
| 20260905171340 | 78 | 100 | 7.0 | 13.0 | 0.00 | 0.01 | 0.01 | 81 | 1011.2 |
| 20260905170610 | 78 | 74 | 7.8 | 13.9 | 0.00 | 0.01 | 0.01 | 79 | 1011.5 |
| 20260905165839 | 78 | 114 | 3.5 | 14.8 | 0.00 | 0.01 | 0.01 | 78 | 1011.3 |
| 20260905165340 | 78 | 127 | 7.8 | 14.8 | 0.00 | 0.01 | 0.01 | 80 | 1011.3 |
| 20260905164839 | 78 | 70 | 8.7 | 13.9 | 0.00 | 0.01 | 0.01 | 81 | 1011.1 |
| 20260905164625 | 78 | 80 | 6.1 | 13.9 | 0.00 | 0.01 | 0.01 | 81 | 1011.1 |
| 20260905164111 | 77 | 113 | 7.0 | 13.9 | 0.00 | 0.01 | 0.01 | 82 | 1011.0 |
| 20260905163339 | 77 | 81 | 5.2 | 18.2 | 0.00 | 0.01 | 0.01 | 81 | 1011.0 |
| 20260905162839 | 77 | 91 | 8.7 | 18.2 | 0.00 | 0.01 | 0.01 | 81 | 1011.0 |
| 20260905162340 | 77 | 66 | 7.8 | 14.8 | 0.00 | 0.01 | 0.01 | 80 | 1011.0 |
| 20260905161840 | 77 | 105 | 4.3 | 13.0 | 0.00 | 0.01 | 0.01 | 81 | 1011.0 |
| 20260905161340 | 76 | 81 | 7.0 | 13.0 | 0.00 | 0.01 | 0.01 | 81 | 1010.9 |
| 20260905160840 | 76 | 89 | 3.5 | 13.9 | 0.00 | 0.01 | 0.01 | 82 | 1011.1 |
| 20260905160339 | 76 | 116 | 9.6 | 13.9 | 0.00 | 0.01 | 0.01 | 83 | 1010.8 |
| 20260905155840 | 76 | 86 | 8.7 | 12.2 | 0.00 | 0.01 | 0.01 | 83 | 1010.9 |
| 20260905155340 | 76 | 56 | 2.6 | 12.2 | 0.00 | 0.01 | 0.01 | 83 | 1011.0 |
| 20260905154840 | 76 | 93 | 1.7 | 12.2 | 0.00 | 0.01 | 0.01 | 83 | 1011.2 |
| 20260905154339 | 76 | 132 | 4.3 | 13.0 | 0.00 | 0.02 | 0.01 | 83 | 1010.9 |
| 20260905154111 | 76 | 102 | 2.6 | 13.0 | 0.00 | 0.02 | 0.01 | 83 | 1011.0 |
| 20260905153341 | 77 | 98 | 7.8 | 12.2 | 0.00 | 0.02 | 0.01 | 82 | 1011.1 |
| 20260905152839 | 77 | 100 | 7.8 | 12.2 | 0.00 | 0.02 | 0.01 | 83 | 1011.3 |
| 20260905152341 | 77 | 83 | 6.1 | 11.3 | 0.00 | 0.02 | 0.01 | 82 | 1011.2 |
| 20260905151840 | 77 | 108 | 5.2 | 12.2 | 0.00 | 0.02 | 0.01 | 82 | 1011.2 |
| 20260905151611 | 76 | 32 | 7.8 | 12.2 | 0.00 | 0.02 | 0.01 | 81 | 1010.7 |
| 20260905150842 | 76 | 110 | 4.3 | 13.0 | 0.00 | 0.02 | 0.01 | 81 | 1010.9 |
| 20260905150611 | 76 | 85 | 5.2 | 13.0 | 0.00 | 0.02 | 0.01 | 81 | 1011.0 |
| 20260905150117 | 76 | 115 | 3.5 | 13.9 | 0.00 | 0.02 | 0.01 | 82 | 1011.0 |
| 20260905145840 | 76 | 105 | 5.2 | 13.9 | 0.00 | 0.02 | 0.01 | 81 | 1011.0 |
| 20260905144839 | 76 | 49 | 9.6 | 13.9 | 0.00 | 0.02 | 0.01 | 82 | 1011.1 |
| 20260905144340 | 76 | 94 | 10.4 | 16.5 | 0.01 | 0.02 | 0.01 | 82 | 1010.9 |
| 20260905143841 | 76 | 74 | 9.6 | 16.5 | 0.01 | 0.02 | 0.01 | 82 | 1010.9 |